Location: Most
(50.5133°N, 13.6207°E)
Time: 09:47:10
(UTC+02:00)

ISS - Pass Details

Date: 15 July 2018
Orbit: 402 x 408 km, 51.6° (Epoch: 17 July)

Event Time Altitude Azimuth Distance (km) Brightness Sun altitude
Exits shadow 01:49:53 57° 201° (SSW) 484 -3.9 -17.4°
Maximum altitude 01:50:17 64° 159° (SSE) 453 -3.9 -17.4°
Drops below altitude 10° 01:53:33 10° 77° (ENE) 1,471 -0.7 -17.3°
Sets 01:55:39 0° 74° (ENE) 2,335 0.4 -17.3°
